Location: Amberg
(48.0613°N, 10.6820°E)
Time: 20:35:53
(UTC+00:00)

Resurs 01 Rocket - Pass Details

Date: 18 November 2025
Orbit: 626 x 637 km, 97.7° (Epoch: 10 December)

Event Time Altitude Azimuth Distance (km) Brightness Sun altitude
Exits shadow 19:07:35 13° 327° (NNW) 1,818 4.3 -35.1°
Drops below altitude 10° 19:08:11 10° 330° (NNW) 2,035 4.6 -35.2°
Sets 19:10:34 0° 340° (NNW) 2,948 5.4 -35.5°
